| time (UTC) | temp F | wind direction | speed MPH | gust MPH | rain 1hr in | rain 24hr in | rain mn in | humidity % | barometer mb |
| 20260505233625 | 55 | 355 | 4.0 | 11.0 | 0.00 | 0.00 | 0.00 | 45 | 1011.7 |
| 20260505233140 | 55 | 96 | 1.0 | 5.0 | 0.00 | 0.00 | 0.00 | 48 | 1011.8 |
| 20260505232634 | 55 | 305 | 2.0 | 5.0 | 0.00 | 0.00 | 0.00 | 47 | 1011.7 |
| 20260505232128 | 55 | 316 | 1.0 | 6.0 | 0.00 | 0.00 | 0.00 | 47 | 1011.7 |
| 20260505231640 | 55 | 86 | 2.0 | 6.0 | 0.00 | 0.00 | 0.00 | 46 | 1012.0 |
| 20260505231134 | 55 | 310 | 1.0 | 5.0 | 0.00 | 0.00 | 0.00 | 48 | 1012.3 |
| 20260505230632 | 55 | 10 | 3.0 | 13.0 | 0.00 | 0.00 | 0.00 | 49 | 1012.5 |
| 20260505230125 | 56 | 326 | 2.0 | 4.0 | 0.00 | 0.00 | 0.00 | 43 | 1012.4 |
| 20260505225640 | 56 | 101 | 1.0 | 4.0 | 0.00 | 0.00 | 0.00 | 43 | 1012.1 |
| 20260505225133 | 56 | 228 | 1.0 | 9.0 | 0.00 | 0.00 | 0.00 | 41 | 1012.0 |
| 20260505224627 | 57 | 306 | 2.0 | 9.0 | 0.00 | 0.00 | 0.00 | 41 | 1011.8 |
| 20260505224141 | 57 | 360 | 2.0 | 6.0 | 0.00 | 0.00 | 0.00 | 40 | 1011.7 |
| 20260505223635 | 57 | 347 | 3.0 | 6.0 | 0.00 | 0.00 | 0.00 | 42 | 1011.9 |
| 20260505223133 | 58 | 76 | 4.0 | 9.0 | 0.00 | 0.00 | 0.00 | 42 | 1011.7 |
| 20260505222626 | 58 | 112 | 5.0 | 10.0 | 0.00 | 0.00 | 0.00 | 42 | 1011.5 |
| 20260505222141 | 58 | 267 | 2.0 | 5.0 | 0.00 | 0.00 | 0.00 | 42 | 1011.7 |
| 20260505221634 | 58 | 148 | 1.0 | 6.0 | 0.00 | 0.00 | 0.00 | 44 | 1011.8 |
| 20260505221127 | 57 | 109 | 1.0 | 4.0 | 0.00 | 0.00 | 0.00 | 44 | 1011.9 |
| 20260505220622 | 57 | 150 | 1.0 | 5.0 | 0.00 | 0.00 | 0.00 | 43 | 1012.1 |
| 20260505220135 | 57 | 292 | 1.0 | 3.0 | 0.00 | 0.00 | 0.00 | 43 | 1012.0 |
| 20260505215629 | 57 | 129 | 1.0 | 4.0 | 0.00 | 0.00 | 0.00 | 42 | 1012.0 |
| 20260505215143 | 57 | 147 | 1.0 | 6.0 | 0.00 | 0.00 | 0.00 | 42 | 1012.1 |
| 20260505214640 | 57 | 139 | 2.0 | 6.0 | 0.00 | 0.00 | 0.00 | 41 | 1012.2 |
| 20260505214154 | 57 | 134 | 1.0 | 6.0 | 0.00 | 0.00 | 0.00 | 42 | 1012.3 |
| 20260505213627 | 56 | 58 | 1.0 | 5.0 | 0.00 | 0.00 | 0.00 | 43 | 1012.3 |
| 20260505213141 | 57 | 58 | 1.0 | 5.0 | 0.00 | 0.00 | 0.00 | 41 | 1012.4 |
| 20260505212634 | 57 | 344 | 0.0 | 3.0 | 0.00 | 0.00 | 0.00 | 42 | 1012.6 |
| 20260505212128 | 57 | 346 | 1.0 | 3.0 | 0.00 | 0.00 | 0.00 | 42 | 1012.6 |
| 20260505211623 | 57 | 49 | 2.0 | 6.0 | 0.00 | 0.00 | 0.00 | 41 | 1012.7 |
| 20260505211136 | 58 | 55 | 2.0 | 6.0 | 0.00 | 0.00 | 0.00 | 40 | 1012.9 |
| 20260505210634 | 58 | 242 | 2.0 | 5.0 | 0.00 | 0.00 | 0.00 | 39 | 1012.9 |
| 20260505210128 | 58 | 73 | 2.0 | 5.0 | 0.00 | 0.00 | 0.00 | 40 | 1012.8 |
| 20260505205622 | 58 | 205 | 2.0 | 8.0 | 0.00 | 0.00 | 0.00 | 40 | 1013.0 |
| 20260505205157 | 58 | 207 | 2.0 | 8.0 | 0.00 | 0.00 | 0.00 | 41 | 1013.0 |
| 20260505204630 | 58 | 103 | 2.0 | 5.0 | 0.00 | 0.00 | 0.00 | 42 | 1013.1 |
| 20260505204123 | 57 | 259 | 2.0 | 5.0 | 0.00 | 0.00 | 0.00 | 43 | 1013.2 |
| 20260505203637 | 56 | 144 | 1.0 | 4.0 | 0.00 | 0.00 | 0.00 | 47 | 1013.3 |
| 20260505203130 | 55 | 275 | 2.0 | 5.0 | 0.00 | 0.00 | 0.00 | 47 | 1013.4 |
| 20260505202628 | 55 | 297 | 1.0 | 5.0 | 0.00 | 0.00 | 0.00 | 50 | 1013.7 |
| 20260505202121 | 55 | 63 | 2.0 | 5.0 | 0.00 | 0.00 | 0.00 | 51 | 1013.9 |
| 20260505201635 | 55 | 340 | 2.0 | 7.0 | 0.00 | 0.00 | 0.00 | 47 | 1013.8 |
| 20260505201129 | 55 | 212 | 1.0 | 7.0 | 0.00 | 0.00 | 0.00 | 47 | 1013.8 |
| 20260505200623 | 55 | 259 | 1.0 | 5.0 | 0.00 | 0.00 | 0.00 | 47 | 1013.7 |
| 20260505200158 | 55 | 288 | 2.0 | 5.0 | 0.00 | 0.00 | 0.00 | 49 | 1013.6 |
| 20260505195630 | 55 | 16 | 2.0 | 5.0 | 0.00 | 0.00 | 0.00 | 49 | 1013.6 |
| 20260505195125 | 55 | 36 | 3.0 | 5.0 | 0.00 | 0.00 | 0.00 | 48 | 1013.8 |
| 20260505194622 | 55 | 11 | 2.0 | 7.0 | 0.00 | 0.00 | 0.00 | 50 | 1013.8 |
| 20260505194136 | 55 | 324 | 2.0 | 8.0 | 0.00 | 0.00 | 0.00 | 50 | 1013.9 |
| 20260505193631 | 55 | 12 | 2.0 | 5.0 | 0.00 | 0.00 | 0.00 | 53 | 1013.8 |
| 20260505193122 | 55 | 315 | 3.0 | 5.0 | 0.00 | 0.00 | 0.00 | 49 | 1013.8 |
| 20260505192637 | 54 | 42 | 1.0 | 4.0 | 0.00 | 0.00 | 0.00 | 50 | 1013.8 |
| 20260505192130 | 54 | 275 | 1.0 | 5.0 | 0.00 | 0.00 | 0.00 | 50 | 1013.9 |
| 20260505191644 | 54 | 296 | 2.0 | 10.0 | 0.00 | 0.00 | 0.00 | 52 | 1013.9 |
| 20260505191134 | 54 | 236 | 3.0 | 10.0 | 0.00 | 0.00 | 0.00 | 51 | 1013.9 |
| 20260505190629 | 54 | 294 | 2.0 | 4.0 | 0.00 | 0.00 | 0.00 | 57 | 1014.0 |
| 20260505190126 | 53 | 165 | 1.0 | 5.0 | 0.00 | 0.00 | 0.00 | 60 | 1014.0 |
| 20260505185640 | 52 | 14 | 1.0 | 6.0 | 0.00 | 0.00 | 0.00 | 66 | 1014.0 |
| 20260505185133 | 52 | 289 | 4.0 | 6.0 | 0.00 | 0.00 | 0.00 | 59 | 1014.2 |
| 20260505184627 | 51 | 333 | 3.0 | 6.0 | 0.00 | 0.00 | 0.00 | 60 | 1014.2 |
| 20260505184141 | 51 | 32 | 1.0 | 4.0 | 0.00 | 0.00 | 0.00 | 62 | 1014.1 |
| 20260505183635 | 51 | 302 | 2.0 | 4.0 | 0.00 | 0.00 | 0.00 | 60 | 1014.2 |
| 20260505183129 | 52 | 296 | 1.0 | 4.0 | 0.00 | 0.00 | 0.00 | 59 | 1014.1 |
| 20260505182643 | 53 | 315 | 1.0 | 3.0 | 0.00 | 0.00 | 0.00 | 56 | 1014.1 |
| 20260505182140 | 53 | 360 | 1.0 | 3.0 | 0.00 | 0.00 | 0.00 | 51 | 1014.0 |
| 20260505181633 | 53 | 273 | 1.0 | 4.0 | 0.00 | 0.00 | 0.00 | 51 | 1013.9 |
| 20260505181128 | 54 | 11 | 2.0 | 4.0 | 0.00 | 0.00 | 0.00 | 50 | 1013.7 |
| 20260505180621 | 54 | 81 | 1.0 | 4.0 | 0.00 | 0.00 | 0.00 | 49 | 1013.7 |
| 20260505180136 | 54 | 137 | 0.0 | 4.0 | 0.00 | 0.00 | 0.00 | 43 | 1013.7 |
| 20260505175649 | 54 | 277 | 1.0 | 4.0 | 0.00 | 0.00 | 0.00 | 43 | 1013.6 |
| 20260505175122 | 54 | 46 | 3.0 | 4.0 | 0.00 | 0.00 | 0.00 | 43 | 1013.5 |
| 20260505174636 | 54 | 288 | 2.0 | 4.0 | 0.00 | 0.00 | 0.00 | 43 | 1013.5 |
| 20260505174133 | 54 | 312 | 1.0 | 4.0 | 0.00 | 0.00 | 0.00 | 43 | 1013.7 |
| 20260505173627 | 54 | 139 | 2.0 | 4.0 | 0.00 | 0.00 | 0.00 | 43 | 1013.8 |
| 20260505173141 | 54 | 148 | 2.0 | 5.0 | 0.00 | 0.00 | 0.00 | 42 | 1014.0 |
| 20260505172635 | 54 | 134 | 2.0 | 7.0 | 0.00 | 0.00 | 0.00 | 42 | 1014.0 |
| 20260505172128 | 54 | 130 | 1.0 | 7.0 | 0.00 | 0.00 | 0.00 | 42 | 1014.0 |
| 20260505171622 | 55 | 98 | 2.0 | 5.0 | 0.00 | 0.00 | 0.00 | 42 | 1014.0 |
| 20260505171156 | 55 | 34 | 2.0 | 7.0 | 0.00 | 0.00 | 0.00 | 42 | 1014.0 |
| 20260505170627 | 55 | 167 | 2.0 | 8.0 | 0.00 | 0.00 | 0.00 | 41 | 1014.1 |
| 20260505170141 | 55 | 178 | 2.0 | 5.0 | 0.00 | 0.00 | 0.00 | 42 | 1014.0 |
| 20260505165639 | 55 | 256 | 1.0 | 6.0 | 0.00 | 0.00 | 0.00 | 42 | 1014.1 |
| 20260505165132 | 54 | 151 | 2.0 | 8.0 | 0.00 | 0.00 | 0.00 | 44 | 1014.2 |
| 20260505164646 | 53 | 121 | 3.0 | 6.0 | 0.00 | 0.00 | 0.00 | 45 | 1014.3 |
| 20260505164139 | 53 | 143 | 2.0 | 5.0 | 0.00 | 0.00 | 0.00 | 44 | 1014.4 |
| 20260505163633 | 53 | 176 | 1.0 | 3.0 | 0.00 | 0.00 | 0.00 | 44 | 1014.5 |
| 20260505163147 | 53 | 202 | 0.0 | 3.0 | 0.00 | 0.00 | 0.00 | 44 | 1014.6 |
| 20260505162640 | 53 | 36 | 0.0 | 4.0 | 0.00 | 0.00 | 0.00 | 45 | 1014.6 |
| 20260505162134 | 53 | 321 | 1.0 | 5.0 | 0.00 | 0.00 | 0.00 | 46 | 1014.5 |
| 20260505161627 | 52 | 355 | 2.0 | 5.0 | 0.00 | 0.00 | 0.00 | 45 | 1014.5 |
| 20260505161125 | 52 | 309 | 1.0 | 4.0 | 0.00 | 0.00 | 0.00 | 46 | 1014.5 |
| 20260505160639 | 52 | 189 | 1.0 | 4.0 | 0.00 | 0.00 | 0.00 | 46 | 1014.7 |
| 20260505160153 | 52 | 327 | 1.0 | 4.0 | 0.00 | 0.00 | 0.00 | 46 | 1014.7 |
| 20260505153135 | 52 | 91 | 1.0 | 5.0 | 0.00 | 0.00 | 0.00 | 45 | 1015.0 |
| 20260505152632 | 52 | 177 | 2.0 | 5.0 | 0.00 | 0.00 | 0.00 | 44 | 1014.8 |
| 20260505152126 | 52 | 197 | 1.0 | 3.0 | 0.00 | 0.00 | 0.00 | 44 | 1015.0 |
| 20260505151638 | 52 | 198 | 1.0 | 3.0 | 0.00 | 0.00 | 0.00 | 45 | 1015.1 |
| 20260505151131 | 51 | 126 | 1.0 | 3.0 | 0.00 | 0.00 | 0.00 | 45 | 1015.2 |
| 20260505150624 | 51 | 299 | 1.0 | 7.0 | 0.00 | 0.00 | 0.00 | 45 | 1015.1 |
| 20260505150137 | 51 | 239 | 1.0 | 7.0 | 0.00 | 0.00 | 0.00 | 45 | 1015.2 |
| 20260505140644 | 50 | 19 | 1.0 | 4.0 | 0.00 | 0.00 | 0.00 | 52 | 1015.1 |
| 20260505140137 | 50 | 5 | 2.0 | 4.0 | 0.00 | 0.00 | 0.00 | 51 | 1015.3 |
| 20260505130123 | 49 | 194 | 1.0 | 2.0 | 0.00 | 0.00 | 0.00 | 52 | 1015.4 |
| 20260505124627 | 49 | 252 | 2.0 | 5.0 | 0.00 | 0.00 | 0.00 | 52 | 1015.1 |
| 20260505124141 | 49 | 349 | 2.0 | 4.0 | 0.00 | 0.00 | 0.00 | 52 | 1015.2 |
| 20260505123635 | 49 | 54 | 0.0 | 0.0 | 0.00 | 0.00 | 0.00 | 52 | 1015.2 |
| 20260505123128 | 49 | 54 | 0.0 | 2.0 | 0.00 | 0.00 | 0.00 | 51 | 1015.2 |
| 20260505122642 | 49 | 54 | 0.0 | 3.0 | 0.00 | 0.00 | 0.00 | 50 | 1015.1 |
| 20260505122136 | 49 | 54 | 1.0 | 4.0 | 0.00 | 0.00 | 0.00 | 50 | 1015.1 |
| 20260505121629 | 49 | 42 | 1.0 | 4.0 | 0.00 | 0.00 | 0.00 | 50 | 1015.0 |
| 20260505121128 | 49 | 88 | 2.0 | 2.0 | 0.00 | 0.00 | 0.00 | 49 | 1014.9 |
| 20260505120639 | 49 | 240 | 0.0 | 0.0 | 0.00 | 0.00 | 0.00 | 49 | 1014.9 |
| 20260505120132 | 49 | 157 | 0.0 | 0.0 | 0.00 | 0.00 | 0.00 | 48 | 1014.7 |
| 20260505115646 | 50 | 157 | 0.0 | 0.0 | 0.00 | 0.00 | 0.00 | 47 | 1014.7 |
| 20260505115139 | 50 | 157 | 0.0 | 2.0 | 0.00 | 0.00 | 0.00 | 47 | 1014.6 |
| 20260505114632 | 50 | 157 | 0.0 | 2.0 | 0.00 | 0.00 | 0.00 | 46 | 1014.7 |
| 20260505114126 | 50 | 166 | 0.0 | 0.0 | 0.00 | 0.00 | 0.00 | 46 | 1014.8 |
| 20260505113640 | 50 | 166 | 0.0 | 2.0 | 0.00 | 0.00 | 0.00 | 45 | 1014.8 |
| 20260505113154 | 50 | 264 | 0.0 | 4.0 | 0.00 | 0.00 | 0.00 | 45 | 1014.7 |
| 20260505112632 | 50 | 279 | 1.0 | 6.0 | 0.00 | 0.00 | 0.00 | 45 | 1014.8 |
| 20260505112126 | 50 | 49 | 2.0 | 3.0 | 0.00 | 0.00 | 0.00 | 45 | 1014.8 |
| 20260505111639 | 50 | 153 | 0.0 | 3.0 | 0.00 | 0.00 | 0.00 | 44 | 1014.8 |
| 20260505111132 | 50 | 153 | 1.0 | 3.0 | 0.00 | 0.00 | 0.00 | 43 | 1014.9 |
| 20260505110627 | 50 | 198 | 0.0 | 3.0 | 0.00 | 0.00 | 0.00 | 42 | 1014.9 |
| 20260505110140 | 50 | 198 | 1.0 | 3.0 | 0.00 | 0.00 | 0.00 | 42 | 1015.0 |
| 20260505102131 | 50 | 35 | 3.0 | 9.0 | 0.00 | 0.00 | 0.00 | 44 | 1014.5 |
| 20260505101624 | 50 | 53 | 1.0 | 5.0 | 0.00 | 0.00 | 0.00 | 44 | 1014.6 |
| 20260505101138 | 51 | 53 | 2.0 | 7.0 | 0.00 | 0.00 | 0.00 | 44 | 1014.7 |
| 20260505100636 | 51 | 56 | 3.0 | 11.0 | 0.00 | 0.00 | 0.00 | 44 | 1014.5 |
| 20260505100130 | 51 | 32 | 4.0 | 11.0 | 0.00 | 0.00 | 0.00 | 44 | 1014.5 |
| 20260505095624 | 51 | 19 | 2.0 | 13.0 | 0.00 | 0.00 | 0.00 | 44 | 1014.6 |
| 20260505095137 | 51 | 26 | 3.0 | 13.0 | 0.00 | 0.00 | 0.00 | 44 | 1014.7 |
| 20260505094631 | 51 | 236 | 1.0 | 4.0 | 0.00 | 0.00 | 0.00 | 43 | 1014.7 |
| 20260505094125 | 51 | 48 | 1.0 | 7.0 | 0.00 | 0.00 | 0.00 | 43 | 1014.7 |
| 20260505093639 | 51 | 57 | 2.0 | 7.0 | 0.00 | 0.00 | 0.00 | 42 | 1014.7 |
| 20260505093153 | 51 | 36 | 1.0 | 9.0 | 0.00 | 0.00 | 0.00 | 42 | 1014.7 |
| 20260505092630 | 51 | 78 | 2.0 | 11.0 | 0.00 | 0.00 | 0.00 | 42 | 1014.7 |
| 20260505092144 | 51 | 48 | 2.0 | 4.0 | 0.00 | 0.00 | 0.00 | 43 | 1014.9 |
| 20260505091636 | 51 | 26 | 2.0 | 4.0 | 0.00 | 0.00 | 0.00 | 42 | 1014.7 |
| 20260505091151 | 51 | 103 | 0.0 | 8.0 | 0.00 | 0.00 | 0.00 | 41 | 1014.7 |
| 20260505090624 | 52 | 30 | 3.0 | 5.0 | 0.00 | 0.00 | 0.00 | 42 | 1014.7 |
| 20260505090136 | 52 | 28 | 2.0 | 3.0 | 0.00 | 0.00 | 0.00 | 40 | 1014.9 |
| 20260505085631 | 52 | 26 | 1.0 | 8.0 | 0.00 | 0.00 | 0.00 | 41 | 1014.8 |
| 20260505085125 | 52 | 134 | 3.0 | 8.0 | 0.00 | 0.00 | 0.00 | 40 | 1015.0 |
| 20260505084639 | 52 | 49 | 2.0 | 6.0 | 0.00 | 0.00 | 0.00 | 40 | 1015.2 |
| 20260505084132 | 52 | 49 | 2.0 | 6.0 | 0.00 | 0.00 | 0.00 | 40 | 1015.1 |
| 20260505083628 | 52 | 89 | 0.0 | 4.0 | 0.00 | 0.00 | 0.00 | 40 | 1015.1 |
| 20260505083123 | 52 | 74 | 2.0 | 8.0 | 0.00 | 0.00 | 0.00 | 39 | 1015.2 |
| 20260505082636 | 52 | 203 | 2.0 | 9.0 | 0.00 | 0.00 | 0.00 | 39 | 1015.1 |
| 20260505082131 | 52 | 57 | 3.0 | 9.0 | 0.00 | 0.00 | 0.00 | 39 | 1015.0 |
| 20260505081625 | 53 | 360 | 3.0 | 8.0 | 0.00 | 0.00 | 0.00 | 39 | 1015.3 |
| 20260505081139 | 53 | 177 | 3.0 | 8.0 | 0.00 | 0.00 | 0.00 | 38 | 1015.3 |
| 20260505080653 | 53 | 67 | 3.0 | 8.0 | 0.00 | 0.00 | 0.00 | 38 | 1015.5 |
| 20260505080126 | 53 | 286 | 2.0 | 9.0 | 0.00 | 0.00 | 0.00 | 38 | 1015.7 |
| 20260505075625 | 53 | 286 | 4.0 | 9.0 | 0.00 | 0.00 | 0.00 | 37 | 1015.5 |
| 20260505075139 | 53 | 233 | 3.0 | 4.0 | 0.00 | 0.00 | 0.00 | 37 | 1015.4 |
| 20260505074632 | 53 | 71 | 0.0 | 6.0 | 0.00 | 0.00 | 0.00 | 36 | 1015.4 |
| 20260505074127 | 54 | 277 | 2.0 | 6.0 | 0.00 | 0.00 | 0.00 | 36 | 1015.6 |
| 20260505073701 | 54 | 47 | 3.0 | 12.0 | 0.00 | 0.00 | 0.00 | 35 | 1015.6 |
| 20260505073134 | 54 | 350 | 4.0 | 12.0 | 0.00 | 0.00 | 0.00 | 36 | 1015.6 |
| 20260505072627 | 54 | 316 | 2.0 | 9.0 | 0.00 | 0.00 | 0.00 | 35 | 1015.4 |
| 20260505072122 | 54 | 5 | 3.0 | 5.0 | 0.00 | 0.00 | 0.00 | 35 | 1015.2 |
| 20260505071640 | 54 | 333 | 3.0 | 6.0 | 0.00 | 0.00 | 0.00 | 34 | 1015.2 |
| 20260505071133 | 54 | 70 | 3.0 | 6.0 | 0.00 | 0.00 | 0.00 | 34 | 1015.2 |
| 20260505070627 | 54 | 360 | 3.0 | 6.0 | 0.00 | 0.00 | 0.00 | 34 | 1015.2 |
| 20260505070140 | 54 | 355 | 2.0 | 6.0 | 0.00 | 0.00 | 0.00 | 34 | 1015.2 |
| 20260505065635 | 55 | 114 | 2.0 | 6.0 | 0.00 | 0.00 | 0.00 | 34 | 1015.3 |
| 20260505065128 | 55 | 22 | 1.0 | 11.0 | 0.00 | 0.00 | 0.00 | 33 | 1015.3 |
| 20260505064623 | 55 | 79 | 4.0 | 11.0 | 0.00 | 0.00 | 0.00 | 33 | 1015.2 |
| 20260505064136 | 55 | 257 | 2.0 | 6.0 | 0.00 | 0.00 | 0.00 | 33 | 1015.2 |
| 20260505063635 | 55 | 53 | 3.0 | 13.0 | 0.00 | 0.00 | 0.00 | 32 | 1015.2 |
| 20260505063127 | 55 | 5 | 5.0 | 13.0 | 0.00 | 0.00 | 0.00 | 32 | 1015.1 |
| 20260505062622 | 55 | 355 | 3.0 | 5.0 | 0.00 | 0.00 | 0.00 | 33 | 1015.2 |
| 20260505062135 | 55 | 47 | 1.0 | 4.0 | 0.00 | 0.00 | 0.00 | 33 | 1015.2 |
| 20260505061630 | 55 | 292 | 2.0 | 5.0 | 0.00 | 0.00 | 0.00 | 32 | 1015.2 |
| 20260505061122 | 56 | 237 | 1.0 | 5.0 | 0.00 | 0.00 | 0.00 | 31 | 1015.4 |
| 20260505060636 | 56 | 35 | 1.0 | 3.0 | 0.00 | 0.00 | 0.00 | 32 | 1015.4 |
| 20260505060130 | 56 | 79 | 1.0 | 9.0 | 0.00 | 0.00 | 0.00 | 32 | 1015.2 |
| 20260505055627 | 56 | 240 | 3.0 | 9.0 | 0.00 | 0.00 | 0.00 | 32 | 1015.0 |
| 20260505055201 | 56 | 228 | 2.0 | 7.0 | 0.00 | 0.00 | 0.00 | 34 | 1015.1 |
| 20260505054634 | 55 | 272 | 0.0 | 3.0 | 0.00 | 0.00 | 0.00 | 37 | 1015.2 |
| 20260505054126 | 55 | 300 | 2.0 | 5.0 | 0.00 | 0.00 | 0.00 | 37 | 1015.3 |
| 20260505053641 | 56 | 298 | 2.0 | 5.0 | 0.00 | 0.00 | 0.00 | 38 | 1015.0 |
| 20260505053135 | 56 | 161 | 0.0 | 3.0 | 0.00 | 0.00 | 0.00 | 36 | 1015.1 |
| 20260505052628 | 56 | 161 | 1.0 | 3.0 | 0.00 | 0.00 | 0.00 | 36 | 1014.9 |
| 20260505052122 | 56 | 161 | 0.0 | 3.0 | 0.00 | 0.00 | 0.00 | 37 | 1014.9 |
| 20260505051636 | 57 | 161 | 2.0 | 3.0 | 0.00 | 0.00 | 0.00 | 35 | 1014.8 |
| 20260505051134 | 57 | 136 | 0.0 | 0.0 | 0.00 | 0.00 | 0.00 | 36 | 1014.7 |
| 20260505050626 | 58 | 136 | 0.0 | 0.0 | 0.00 | 0.00 | 0.00 | 35 | 1014.8 |
| 20260505050139 | 58 | 142 | 0.0 | 0.0 | 0.00 | 0.00 | 0.00 | 35 | 1014.8 |
| 20260505041624 | 58 | 261 | 1.0 | 6.0 | 0.00 | 0.00 | 0.00 | 32 | 1014.8 |
| 20260505041158 | 58 | 207 | 1.0 | 6.0 | 0.00 | 0.00 | 0.00 | 33 | 1014.7 |
| 20260505040630 | 58 | 146 | 1.0 | 6.0 | 0.00 | 0.00 | 0.00 | 32 | 1014.7 |
| 20260505040125 | 58 | 232 | 3.0 | 6.0 | 0.00 | 0.00 | 0.00 | 32 | 1014.6 |
| 20260505035638 | 58 | 134 | 1.0 | 2.0 | 0.00 | 0.00 | 0.00 | 32 | 1014.8 |
| 20260505035132 | 59 | 134 | 1.0 | 5.0 | 0.00 | 0.00 | 0.00 | 32 | 1014.9 |
| 20260505034626 | 59 | 140 | 1.0 | 5.0 | 0.00 | 0.00 | 0.00 | 31 | 1014.7 |
| 20260505034159 | 59 | 90 | 2.0 | 5.0 | 0.00 | 0.00 | 0.00 | 31 | 1014.7 |
| 20260505033637 | 58 | 163 | 1.0 | 4.0 | 0.00 | 0.00 | 0.00 | 31 | 1014.6 |
| 20260505033152 | 59 | 207 | 1.0 | 3.0 | 0.00 | 0.00 | 0.00 | 30 | 1014.6 |
| 20260505032625 | 59 | 149 | 1.0 | 6.0 | 0.00 | 0.00 | 0.00 | 30 | 1014.6 |
| 20260505032138 | 59 | 50 | 1.0 | 6.0 | 0.00 | 0.00 | 0.00 | 30 | 1014.6 |
| 20260505031652 | 59 | 48 | 3.0 | 5.0 | 0.00 | 0.00 | 0.00 | 30 | 1014.5 |
| 20260505031125 | 59 | 302 | 1.0 | 4.0 | 0.00 | 0.00 | 0.00 | 30 | 1014.5 |
| 20260505030638 | 59 | 63 | 1.0 | 6.0 | 0.00 | 0.00 | 0.00 | 29 | 1014.4 |
| 20260505030130 | 59 | 69 | 0.0 | 3.0 | 0.00 | 0.00 | 0.00 | 29 | 1014.4 |
| 20260505025644 | 59 | 83 | 1.0 | 4.0 | 0.00 | 0.00 | 0.00 | 29 | 1014.5 |
| 20260505025138 | 59 | 232 | 1.0 | 4.0 | 0.00 | 0.00 | 0.00 | 28 | 1014.5 |
| 20260505024630 | 59 | 103 | 1.0 | 8.0 | 0.00 | 0.00 | 0.00 | 28 | 1014.5 |
| 20260505024127 | 59 | 232 | 1.0 | 4.0 | 0.00 | 0.00 | 0.00 | 28 | 1014.2 |
| 20260505023639 | 59 | 146 | 1.0 | 8.0 | 0.00 | 0.00 | 0.00 | 28 | 1014.1 |
| 20260505023132 | 59 | 49 | 3.0 | 8.0 | 0.00 | 0.00 | 0.00 | 28 | 1014.3 |
| 20260505022646 | 60 | 61 | 1.0 | 3.0 | 0.00 | 0.00 | 0.00 | 26 | 1014.2 |
| 20260505022158 | 60 | 45 | 1.0 | 3.0 | 0.00 | 0.00 | 0.00 | 26 | 1014.2 |
| 20260505021629 | 60 | 144 | 1.0 | 3.0 | 0.00 | 0.00 | 0.00 | 26 | 1014.0 |
| 20260505021123 | 60 | 171 | 2.0 | 4.0 | 0.00 | 0.00 | 0.00 | 25 | 1014.1 |
| 20260505020637 | 60 | 53 | 1.0 | 6.0 | 0.00 | 0.00 | 0.00 | 25 | 1014.1 |
| 20260505020129 | 61 | 209 | 3.0 | 5.0 | 0.00 | 0.00 | 0.00 | 25 | 1014.2 |
| 20260505015644 | 61 | 88 | 1.0 | 4.0 | 0.00 | 0.00 | 0.00 | 24 | 1014.2 |
| 20260505015158 | 61 | 355 | 2.0 | 3.0 | 0.00 | 0.00 | 0.00 | 23 | 1014.1 |
| 20260505014634 | 61 | 177 | 1.0 | 5.0 | 0.00 | 0.00 | 0.00 | 23 | 1014.1 |
| 20260505014127 | 61 | 219 | 2.0 | 5.0 | 0.00 | 0.00 | 0.00 | 24 | 1014.0 |
| 20260505013701 | 62 | 302 | 2.0 | 5.0 | 0.00 | 0.00 | 0.00 | 23 | 1013.9 |
| 20260505013134 | 62 | 59 | 2.0 | 8.0 | 0.00 | 0.00 | 0.00 | 23 | 1013.9 |
| 20260505012628 | 62 | 276 | 1.0 | 8.0 | 0.00 | 0.00 | 0.00 | 22 | 1013.9 |
| 20260505012122 | 62 | 78 | 0.0 | 4.0 | 0.00 | 0.00 | 0.00 | 22 | 1013.8 |
| 20260505011636 | 62 | 42 | 2.0 | 4.0 | 0.00 | 0.00 | 0.00 | 22 | 1013.8 |
| 20260505011131 | 63 | 213 | 2.0 | 7.0 | 0.00 | 0.00 | 0.00 | 21 | 1013.7 |
| 20260505010628 | 63 | 194 | 1.0 | 10.0 | 0.00 | 0.00 | 0.00 | 21 | 1013.7 |
| 20260505010143 | 63 | 306 | 2.0 | 10.0 | 0.00 | 0.00 | 0.00 | 21 | 1013.8 |
| 20260505005635 | 63 | 273 | 3.0 | 10.0 | 0.00 | 0.00 | 0.00 | 20 | 1013.8 |
| 20260505005129 | 63 | 66 | 2.0 | 5.0 | 0.00 | 0.00 | 0.00 | 19 | 1013.9 |
| 20260505004622 | 64 | 316 | 3.0 | 5.0 | 0.00 | 0.00 | 0.00 | 19 | 1013.9 |
| 20260505004136 | 64 | 337 | 0.0 | 5.0 | 0.00 | 0.00 | 0.00 | 19 | 1014.0 |
| 20260505003629 | 64 | 355 | 3.0 | 5.0 | 0.00 | 0.00 | 0.00 | 19 | 1013.9 |
| 20260505003144 | 64 | 140 | 2.0 | 7.0 | 0.00 | 0.00 | 0.00 | 19 | 1014.0 |
| 20260505002636 | 64 | 22 | 1.0 | 5.0 | 0.00 | 0.00 | 0.00 | 20 | 1014.0 |
| 20260505002133 | 64 | 305 | 2.0 | 10.0 | 0.00 | 0.00 | 0.00 | 19 | 1014.0 |
| 20260505001628 | 64 | 307 | 2.0 | 6.0 | 0.00 | 0.00 | 0.00 | 18 | 1013.9 |
| 20260505001141 | 64 | 302 | 1.0 | 5.0 | 0.00 | 0.00 | 0.00 | 20 | 1013.9 |
| 20260505000655 | 64 | 279 | 2.0 | 6.0 | 0.00 | 0.00 | 0.00 | 19 | 1013.9 |
| 20260505000127 | 64 | 90 | 1.0 | 11.0 | 0.00 | 0.00 | 0.00 | 19 | 1014.0 |
| 20260504235641 | 64 | 290 | 4.0 | 11.0 | 0.00 | 0.00 | 0.00 | 18 | 1014.0 |
| 20260504235134 | 64 | 40 | 4.0 | 9.0 | 0.00 | 0.00 | 0.00 | 19 | 1014.0 |
| 20260504234649 | 64 | 146 | 2.0 | 11.0 | 0.00 | 0.00 | 0.00 | 20 | 1013.9 |
| 20260504234121 | 64 | 290 | 4.0 | 11.0 | 0.00 | 0.00 | 0.00 | 19 | 1014.1 |